星链-30825 (STARLINK-30825 )

导读 | 豆包AI

STARLINK-30825是美国SpaceX公司星链(Starlink)低轨通信星座的组网卫星,于2023年11月20日发射入轨。星链星座旨在为全球提供普惠宽带互联网服务,该卫星采用量产化设计,搭载Ku/Ka波段通信载荷,配备氪工质霍尔推进器,具备自主避撞能力,设计寿命约5-7年,退役后会主动离轨再入大气层烧毁,减少空间垃圾威胁。

基本信息
目录编号:
58384
目录名称:
STARLINK-30825
国际标识:
2023-178L
轨道中心:
EARTH
卫星名称:
星链-30825
卫星全名:
星链-30825 (STARLINK-30825 )
卫星状态:
在轨 (已飞行892 天)
发射日期:
2023-11-20 UTC
国别 :
美国 (US)
星等 :
--
轨道信息
数据来源 国际轨道数据
星历时间: 2026-04-30T14:45:38+0800
13小时前
查看轨道信息
半长轴: 6840.862km
偏心率: 0.0001249
轨道倾角: 53.158°
近地点辐角 85.760°
升交点赤经 121.174°
平近点角 274.354°
近地点: 461.87km
远地点: 463.58km
周期: 93.848分钟
每日圈数: 15.343928
详细信息
固有亮度:
5
最大亮度:
0.3
卫星平台:
Starlink v2.0 mini
覆盖范围:
全球
运营商:
太空探索技术公司
运营商所在国:
美国
制造商(研发单位):
太空探索技术公司
制造商所在国:
美国
使用方式:
暂无
卫星简介
星链(Starlink)计划是由太空探索技术公司(SpaceX)提出的一个巨型低轨卫星互联网星座项目,计划在2019年至2024年间在太空搭建由约1.2万颗卫星组成的“星链”网络,其中1584颗将部署在地球上空550千米处的近地轨道,并从2020年开始工作。该卫星仍在工作。
2D轨道图
3D轨道图
轨道高度分析图
轨道倾角分析图
轨道综合分析图
查看轨道综合分析图